Location: Nianha
(10.8000°N, 4.6333°W)
Time: 06:26:01
(UTC+00:00)

STARLINK-63 - Pass Details

Date: 14 November 2019
Orbit: 529 x 531 km, 53.0° (Epoch: 26 January)

Event Time Altitude Azimuth Distance (km) Brightness Sun altitude
Exits shadow 03:43:01 10° 94° (E) 1,727 6.9 -36.4°
Drops below altitude 10° 03:43:06 10° 93° (E) 1,742 6.9 -36.4°
Enters shadow 04:56:02 -41° 219° (SW) 9,152 9.8 -19.1°
Maximum altitude 05:19:54 29° 307° (NW) 965 4.3 -13.4°
